WGS 10 (USA 291) (44071 NORAD) Tracking and Keplerian Element Data

This shows tracking and keplerian element data for the satellite.

Feedback or suggestion? Click here.




ElementValue
Catalog44071
NameWGS 10 (USA 291)
Epoch Orbit41
Epoch Day110.05924303
Epoch Year2019
RAAN278.2852
Inclination0.1684
Eccentricity0.1998732
Argument of Perigee274.156
Mean Anonmoly278.616
Mean Motion1.00382367
Decay Rate-1.15E-06
L11 44071U 19014A 19110.05924303 -.00000115 00000-0 00000+0 0 9996
L22 44071 0.1684 278.2852 1998732 274.1560 278.6160 1.00382367 410

Live tracking and technical data element details for WGS 10 (USA 291) (NORAD 44071). WGS 10 (USA 291) can be tracked NOW for your location showing map with azimuth and elevation plus other details from your city location.

Track the satellite on the map from your city or location and see movement details for azimuth, elevation, latitude, longitude, range, height, and movement on the map or in text.







IsCatalogInMostPopularTable: catalog: 44071, numindb: 61
Update: records affected: 1



GetName: 44071 WGS 10 (USA 291)

Hit Count: updated at: Tue, 23 Apr 2019 02:16:15 GMT